Weather in Novoye Samylovo

Russia / Kostroma Oblast     58°55′03″N   42°23′33″E
temp.,
°C
wind,
m/s
gust,
m/s
humid.,
%
clouds,
%
prec.,
mm/h
press.,
hPa
HPBL,
m
24 september, fri
fri2400:00+9se41194100 0.1 1013695
03:00+8ese41196100 1.6 1011666
06:00+8se41097100 3.4 1009653
09:00+8se41096100 4.3 1009744
12:00+8se4996100 0.2 1009692
15:00+10se4687100 0.4 1009715
18:00+8se399476 0.2 1010476
21:00+7se3109761 0.3 1011347
25 september, sat
sat2500:00+7se3897100 0.2 1011276
03:00+6se369987 0.3 1010240
06:00+6se3595100 0.0 1010337
09:00+8se3590100 0.0 1010422
12:00+12sse347063 0.0 1009909
15:00+11sse2573100 0.1 1009518
18:00+9se388383 0.0 1009206
21:00+7se3891100 0.1 1009210
26 september, sun
sun2600:00+8se2892100 0.1 1008241
03:00+8se31094100 0.3 1008466
06:00+6ese3997100 0.2 1009335
09:00+8ese3889100 0.2 1009383
12:00+11ese3572100 0.1 1011887
15:00+11ene357494 0.5 1012971
18:00+9ene4776100 0.0 1015566
21:00+8nne2779100 0.0 1016316
27 september, mon
mon2700:00+7nne3889100 0.0 1018381
03:00+7nne3993100 0.1 1019517
06:00+8nne4989100 0.0 1021677
09:00+7ne4893100 0.3 1022667
12:00+8ne4789100 0.1 10241049
15:00+8ne3784100 0.2 1026751
18:00+7ene3785100 0.0 1028612
21:00+6ene3787100 0.0 1029584
28 september, tue
tue2800:00+6ne2590100 0.0 1030267
03:00+4ne22958 0.0 103147
06:00+3ne229616 0.0 103233
09:00+7ne127617 0.0 1032298
12:00+10n236299 0.0 10321115
15:00+10nnw2466100 0.1 1032754
18:00+7nnw258299 0.0 1032213
21:00+5nnw2295100 0.0 103338